Sioux Falls, SD

7:24 AM CDT on October 20, 2019 (GMT -0500)
Foss

Weather History for KFSD - August, 2019

Change the Weather History Date:

Monday, August 19, 2019

  Actual Average Record
Temperature  
Mean Temperature 69 °F 71 °F  
Max Temperature 83 °F 82 °F 98 °F (1955)
Min Temperature 55 °F 59 °F 39 °F (2004)
Degree Days  
Heating Degree Days 0 1  
Month to date heating degree days 0 6  
Since 1 June heating degree days 20 65  
Since 1 July heating degree days 0 14  
Cooling Degree Days 4 6  
Month to date cooling degree days 145 136  
Year to date cooling degree days 673 563  
Since 1 June cooling degree days 658 527  
Growing Degree Days 18 (Base 50)    
Moisture  
Dew Point 64 °F    
Average Humidity 78    
Maximum Humidity 93    
Minimum Humidity 62    
Precipitation  
Precipitation T in 0.09 in 1.24 in (1989)
Month to date precipitation 1.83 1.90  
Year to date precipitation 29.02 18.24  
Snow  
Snow 0.00 in 0.00 in 0.00 in ()
Month to date snowfall T 0.0  
Since 1 June snowfall T 0.0  
Since 1 July snowfall T 0.0  
Snow Depth 0.00 in    
Sea Level Pressure  
Sea Level Pressure 29.95 in    
Wind  
Wind Speed 8 mph (SSE)    
Max Wind Speed 15 mph    
Max Gust Speed 23 mph    
Visibility 10 miles    
Events Rain , Thunderstorm    
T = Trace of Precipitation, MM = Missing Value Source: NWS Daily Summary

Daily Weather History Graph

Daily Weather History Graph

Search for Another Location

Airport or City:

Astronomy

Aug. 19, 2019 Rise Set
Actual Time 6:35 AM CDT 8:24 PM CDT
Civil Twilight 6:05 AM CDT 8:54 PM CDT
Nautical Twilight 5:27 AM CDT 9:32 PM CDT
Astronomical Twilight 4:47 AM CDT 10:12 PM CDT
Moon 10:39 PM CDT (8/19) 10:24 AM CDT (8/19)
Length of Visible Light 14h 49m
Length of Day
13h 48m
Waning Gibbous, 85% of the Moon is Illuminated
Aug 19
Waning Gibbous
Aug 23
Last Quarter
Aug 30
New
Sep 5
First Quarter
Sep 13
Full

Hourly Weather History & Observations

Time (CDT) Temp. Heat Index Dew Point Humidity Pressure Visibility Wind Dir Wind Speed Gust Speed Precip Events Conditions
12:56 AM 60.1 °F - 57.0 °F 90% 29.97 in 10.0 mi Calm Calm - N/A   Clear
1:56 AM 57.9 °F - 55.9 °F 93% 29.97 in 10.0 mi Calm Calm - N/A   Clear
2:56 AM 57.0 °F - 55.0 °F 93% 29.97 in 10.0 mi Calm Calm - N/A   Clear
3:56 AM 57.0 °F - 55.0 °F 93% 29.97 in 10.0 mi Calm Calm - N/A   Clear
4:56 AM 55.9 °F - 54.0 °F 93% 29.98 in 10.0 mi Calm Calm - N/A   Clear
5:56 AM 57.0 °F - 55.0 °F 93% 29.99 in 10.0 mi Calm Calm - N/A   Clear
6:56 AM 57.9 °F - 55.0 °F 90% 29.99 in 10.0 mi East 4.6 mph - N/A   Partly Cloudy
7:56 AM 63.0 °F - 59.0 °F 87% 29.99 in 10.0 mi Calm Calm - N/A   Partly Cloudy
8:56 AM 68.0 °F - 62.1 °F 81% 29.99 in 10.0 mi South 6.9 mph - N/A   Partly Cloudy
9:56 AM 72.0 °F - 64.9 °F 78% 29.99 in 10.0 mi South 8.1 mph - N/A   Scattered Clouds
10:56 AM 75.0 °F - 66.0 °F 73% 29.98 in 10.0 mi SSW 8.1 mph - N/A   Scattered Clouds
11:56 AM 78.1 °F - 66.9 °F 68% 29.98 in 10.0 mi South 11.5 mph - N/A   Mostly Cloudy
12:56 PM 79.0 °F - 66.9 °F 66% 29.97 in 10.0 mi SSE 9.2 mph - N/A   Mostly Cloudy
1:56 PM 80.1 °F 82.3 °F 66.9 °F 64% 29.96 in 10.0 mi SSE 13.8 mph - N/A   Mostly Cloudy
2:56 PM 81.0 °F 84.1 °F 69.1 °F 67% 29.94 in 10.0 mi South 13.8 mph 20.7 mph N/A   Mostly Cloudy
3:56 PM 82.0 °F 84.9 °F 68.0 °F 62% 29.93 in 10.0 mi South 13.8 mph 20.7 mph N/A   Mostly Cloudy
4:56 PM 82.0 °F 85.5 °F 69.1 °F 65% 29.91 in 10.0 mi SE 13.8 mph 23.0 mph N/A   Overcast
5:56 PM 81.0 °F 84.1 °F 69.1 °F 67% 29.91 in 10.0 mi SE 15.0 mph 21.9 mph N/A   Overcast
6:56 PM 80.1 °F 82.9 °F 69.1 °F 69% 29.91 in 10.0 mi SSE 13.8 mph - N/A   Overcast
7:56 PM 79.0 °F - 69.1 °F 72% 29.92 in 10.0 mi SSE 11.5 mph - N/A   Overcast
8:56 PM 78.1 °F - 69.1 °F 74% 29.92 in 10.0 mi SE 12.7 mph - N/A   Overcast
9:56 PM 77.0 °F - 70.0 °F 79% 29.93 in 10.0 mi SE 13.8 mph - N/A   Overcast
10:56 PM 77.0 °F - 70.0 °F 79% 29.92 in 10.0 mi SE 12.7 mph - N/A   Overcast
11:33 PM 77.0 °F - 70.0 °F 79% 29.94 in 10.0 mi SSE 13.8 mph - N/A Thunderstorm Thunderstorm
11:56 PM 75.9 °F - 70.0 °F 82% 29.90 in 10.0 mi SSE 16.1 mph 23.0 mph 0.00 in Rain , Thunderstorm Light Thunderstorms and Rain